Погода в Междуречье

Россия / Калининградская область     54°48′03″N   22°09′00″E
темп.,
°C
ветер,
м/с
пор.,
м/с
влажн.,
%
обл.,
%
осадки,
мм/ч
давл.,
гПа
погр.,
м
21 апреля, ср
ср2123:00+7зсз33775 0.0 101137
02:00+6зюз347723 0.0 101046
05:00+4з358661 0.0 100976
08:00+8зсз46646 0.0 1009269
11:00+13зсз56465 0.0 10091050
14:00+14зсз56425 0.0 10081819
17:00+13зсз56504 0.0 10071210
20:00+7сз366987 0.0 1008104
22 апреля, чт
чт2223:00+7зюз487399 0.1 1008294
02:00+7з4970100 0.1 1008659
05:00+4юз4109144 1.2 1007644
08:00+5зюз69728 1.2 1008872
11:00+6юз7965100 0.1 10081382
14:00+7юз9126665 0.3 10081604
17:00+7з8136215 0.6 10091707
20:00+3зюз6116896 0.6 1009674
23 апреля, пт
пт2323:00+2юз7137697 0.0 1009706
02:00+1юз71295100 0.1 1009778
05:00+2з61197100 0.4 1009739
08:00+3зюз7108492 1.3 10111100
11:00+4з81080100 0.8 10121203
14:00+4зсз81278100 1.8 10141223
17:00+4зсз81177100 0.4 10151251
20:00+2з6129288 0.6 1016877
24 апреля, сб
сб2423:00+2сз6118795 0.4 1016979
02:00+2зсз51198100 0.6 1016729
05:00+2з51186100 0.1 1016674
08:00+4зсз587280 0.2 1016992
11:00+6зсз7952100 0.4 10161984
14:00+6зсз81046100 0.5 10162479
17:00+5зсз8105153 0.1 10171989
20:00+2зсз6127998 0.1 1017800
25 апреля, вс
вс2523:00+2зсз71396100 0.3 10161062
02:00+2зсз81395100 0.5 10151020
05:00+2сз7139598 0.4 10151085
08:00+2сз71386100 0.8 10151213
11:00+3сз101491100 0.7 10161094
14:00+3зсз71292100 1.3 10161038
17:00+4сз91384100 0.7 10171153
20:00+1зсз61288100 0.9 1017748